Year,Month,Day,Hour,Minute,Value (Times are PST for temperature in C)
2020,09,29,13,22,24.10
2020,09,29,13,23,24.10
2020,09,29,13,24,24.10
2020,09,29,13,25,24.00
2020,09,29,13,26,24.00
2020,09,29,13,27,23.90
2020,09,29,13,28,23.90
2020,09,29,13,29,23.90
2020,09,29,13,30,23.90
2020,09,29,13,31,23.80
2020,09,29,13,32,23.80
2020,09,29,13,33,23.80
2020,09,29,13,34,23.80
2020,09,29,13,35,23.80
2020,09,29,13,36,23.80
2020,09,29,13,37,23.80
2020,09,29,13,38,23.90
2020,09,29,13,39,24.00
2020,09,29,13,40,24.00
2020,09,29,13,41,24.10
2020,09,29,13,42,24.10
2020,09,29,13,43,24.20
2020,09,29,13,44,24.20
2020,09,29,13,45,24.30
2020,09,29,13,46,24.30
2020,09,29,13,47,24.40
2020,09,29,13,48,24.40
2020,09,29,13,49,24.50
2020,09,29,13,50,24.60
2020,09,29,13,51,24.60
2020,09,29,13,52,24.60
2020,09,29,13,53,24.40
2020,09,29,13,54,24.40
2020,09,29,13,55,24.40
2020,09,29,13,56,24.40
2020,09,29,13,57,24.40
2020,09,29,13,58,24.40
2020,09,29,13,59,24.40
2020,09,29,14,00,24.50
2020,09,29,14,01,24.50
2020,09,29,14,02,24.50
2020,09,29,14,03,24.50
2020,09,29,14,04,24.40
2020,09,29,14,05,24.40
2020,09,29,14,06,24.40
2020,09,29,14,07,24.50
2020,09,29,14,08,24.50
2020,09,29,14,09,24.60
2020,09,29,14,10,24.70
2020,09,29,14,11,24.70
2020,09,29,14,12,24.70
2020,09,29,14,13,24.70
2020,09,29,14,14,24.70
2020,09,29,14,15,24.70
2020,09,29,14,16,24.80
2020,09,29,14,17,24.90
2020,09,29,14,18,24.90
2020,09,29,14,19,24.90
2020,09,29,14,20,24.80
2020,09,29,14,21,24.70
2020,09,29,14,22,24.60
2020,09,29,14,23,24.60
2020,09,29,14,24,24.50
2020,09,29,14,25,24.40
2020,09,29,14,26,24.40
2020,09,29,14,27,24.50
2020,09,29,14,28,24.50
2020,09,29,14,29,24.50
2020,09,29,14,30,24.40
2020,09,29,14,31,24.40
2020,09,29,14,32,24.40
2020,09,29,14,33,24.40
2020,09,29,14,34,24.40
2020,09,29,14,35,24.40
2020,09,29,14,36,24.50
2020,09,29,14,37,24.50
2020,09,29,14,38,24.50
2020,09,29,14,39,24.60
2020,09,29,14,40,24.60
2020,09,29,14,41,24.50
2020,09,29,14,42,24.40
2020,09,29,14,43,24.30
2020,09,29,14,44,24.20
2020,09,29,14,45,24.00
2020,09,29,14,46,24.00
2020,09,29,14,47,23.90
2020,09,29,14,48,23.80
2020,09,29,14,49,23.70
2020,09,29,14,50,23.70
2020,09,29,14,51,23.60
2020,09,29,14,52,23.60
2020,09,29,14,53,23.60
2020,09,29,14,54,23.60
2020,09,29,14,55,23.60
2020,09,29,14,56,23.60
2020,09,29,14,57,23.60
2020,09,29,14,58,23.60
2020,09,29,14,59,23.60
2020,09,29,15,00,23.50
2020,09,29,15,01,23.50
2020,09,29,15,02,23.50
2020,09,29,15,03,23.40
2020,09,29,15,04,23.40
2020,09,29,15,05,23.40
2020,09,29,15,06,23.40
2020,09,29,15,07,23.40
2020,09,29,15,08,23.40
2020,09,29,15,09,23.40
2020,09,29,15,10,23.40
2020,09,29,15,11,23.40
2020,09,29,15,12,23.40
2020,09,29,15,13,23.40
2020,09,29,15,14,23.40
2020,09,29,15,15,23.40
2020,09,29,15,16,23.40
2020,09,29,15,17,23.30
2020,09,29,15,18,23.30
2020,09,29,15,19,23.30
2020,09,29,15,20,23.20
2020,09,29,15,21,23.20
2020,09,29,15,22,23.20
2020,09,29,15,23,23.20
2020,09,29,15,24,23.10
2020,09,29,15,25,23.10
2020,09,29,15,26,23.20
2020,09,29,15,27,23.20
2020,09,29,15,28,23.20
2020,09,29,15,29,23.20
2020,09,29,15,30,23.20
2020,09,29,15,31,23.20
2020,09,29,15,32,23.30
2020,09,29,15,33,23.30
2020,09,29,15,34,23.30
2020,09,29,15,35,23.30
2020,09,29,15,36,23.30
2020,09,29,15,37,23.30
2020,09,29,15,38,23.40
2020,09,29,15,39,23.40
2020,09,29,15,40,23.40
2020,09,29,15,41,23.40
2020,09,29,15,42,23.40
2020,09,29,15,43,23.40
2020,09,29,15,44,23.40
2020,09,29,15,45,23.40
2020,09,29,15,46,23.50
2020,09,29,15,47,23.50
2020,09,29,15,48,23.50
2020,09,29,15,49,23.50
2020,09,29,15,50,23.50
2020,09,29,15,51,23.50
2020,09,29,15,52,23.40
2020,09,29,15,53,23.50
2020,09,29,15,54,23.60
2020,09,29,15,55,23.60
2020,09,29,15,56,23.60
2020,09,29,15,57,23.60
2020,09,29,15,58,23.60
2020,09,29,15,59,23.60
2020,09,29,16,00,23.60
2020,09,29,16,01,23.60
2020,09,29,16,02,23.60
2020,09,29,16,03,23.60
2020,09,29,16,04,23.50
2020,09,29,16,05,23.50
2020,09,29,16,06,23.60
2020,09,29,16,07,23.60
2020,09,29,16,08,23.60
2020,09,29,16,09,23.60
2020,09,29,16,10,23.60
2020,09,29,16,11,23.50
2020,09,29,16,12,23.50
2020,09,29,16,13,23.50
2020,09,29,16,14,23.50
2020,09,29,16,15,23.50
2020,09,29,16,16,23.50
2020,09,29,16,17,23.50
2020,09,29,16,18,23.50
2020,09,29,16,19,23.60
2020,09,29,16,20,23.50
2020,09,29,16,21,23.50
2020,09,29,16,22,23.50
2020,09,29,16,23,23.50
2020,09,29,16,24,23.50
2020,09,29,16,25,23.40
2020,09,29,16,26,23.40
2020,09,29,16,27,23.40
2020,09,29,16,28,23.30
2020,09,29,16,29,23.30
2020,09,29,16,30,23.20
2020,09,29,16,31,23.20
2020,09,29,16,32,23.20
2020,09,29,16,33,23.10
2020,09,29,16,34,23.10
2020,09,29,16,35,23.00
2020,09,29,16,36,22.90
2020,09,29,16,37,22.90
2020,09,29,16,38,22.90
2020,09,29,16,39,22.80
2020,09,29,16,40,22.90
2020,09,29,16,41,22.90
2020,09,29,16,42,22.80
2020,09,29,16,43,22.80
2020,09,29,16,44,22.80
2020,09,29,16,45,22.80
2020,09,29,16,46,22.80
2020,09,29,16,47,22.80
2020,09,29,16,48,22.80
2020,09,29,16,49,22.80
2020,09,29,16,50,22.80
2020,09,29,16,51,22.70
2020,09,29,16,52,22.70
2020,09,29,16,53,22.70
2020,09,29,16,54,22.60
2020,09,29,16,55,22.60
2020,09,29,16,56,22.60
2020,09,29,16,57,22.50
2020,09,29,16,58,22.50
2020,09,29,16,59,22.40
2020,09,29,17,00,22.40
2020,09,29,17,01,22.30
2020,09,29,17,02,22.30
2020,09,29,17,03,22.30
2020,09,29,17,04,22.30
2020,09,29,17,05,22.30
2020,09,29,17,06,22.20
2020,09,29,17,07,22.20
2020,09,29,17,08,22.20
2020,09,29,17,09,22.20
2020,09,29,17,10,22.20
2020,09,29,17,11,22.20
2020,09,29,17,12,22.20
2020,09,29,17,13,22.20
2020,09,29,17,14,22.10
2020,09,29,17,15,22.10
2020,09,29,17,16,22.10
2020,09,29,17,17,22.10
2020,09,29,17,18,22.10
2020,09,29,17,19,22.00
2020,09,29,17,20,22.00
2020,09,29,17,21,21.90
2020,09,29,17,22,21.90
2020,09,29,17,23,21.90
2020,09,29,17,24,21.80
2020,09,29,17,25,21.80
2020,09,29,17,26,21.80
2020,09,29,17,27,21.80
2020,09,29,17,28,21.70
2020,09,29,17,29,21.70
2020,09,29,17,30,21.70
2020,09,29,17,31,21.60
2020,09,29,17,32,21.60
2020,09,29,17,33,21.60
2020,09,29,17,34,21.50
2020,09,29,17,35,21.50
2020,09,29,17,36,21.40
2020,09,29,17,37,21.40
2020,09,29,17,38,21.40
2020,09,29,17,39,21.40
2020,09,29,17,40,21.30
2020,09,29,17,41,21.30
2020,09,29,17,42,21.30
2020,09,29,17,43,21.30
2020,09,29,17,44,21.30
2020,09,29,17,45,21.30
2020,09,29,17,46,21.30
2020,09,29,17,47,21.30
2020,09,29,17,48,21.20
2020,09,29,17,49,21.20
2020,09,29,17,50,21.20
2020,09,29,17,51,21.20
2020,09,29,17,52,21.10
2020,09,29,17,53,21.10
2020,09,29,17,54,21.10
2020,09,29,17,55,21.10
2020,09,29,17,56,21.00
2020,09,29,17,57,21.00
2020,09,29,17,58,20.90
2020,09,29,17,59,20.90
2020,09,29,18,00,20.80
2020,09,29,18,01,20.80
2020,09,29,18,02,20.80
2020,09,29,18,03,20.70
2020,09,29,18,04,20.70
2020,09,29,18,05,20.70
2020,09,29,18,06,20.60
2020,09,29,18,07,20.60
2020,09,29,18,08,20.60
2020,09,29,18,09,20.60
2020,09,29,18,10,20.60
2020,09,29,18,11,20.50
2020,09,29,18,12,20.50
2020,09,29,18,13,20.40
2020,09,29,18,14,20.40
2020,09,29,18,15,20.40
2020,09,29,18,16,20.30
2020,09,29,18,17,20.30
2020,09,29,18,18,20.30
2020,09,29,18,19,20.20
2020,09,29,18,20,20.20
2020,09,29,18,21,20.10
2020,09,29,18,22,20.10
2020,09,29,18,23,20.00
2020,09,29,18,24,20.00
2020,09,29,18,25,20.00
2020,09,29,18,26,19.90
2020,09,29,18,27,19.90
2020,09,29,18,28,19.90
2020,09,29,18,29,19.90
2020,09,29,18,30,19.80
2020,09,29,18,31,19.80
2020,09,29,18,32,19.80
2020,09,29,18,33,19.80
2020,09,29,18,34,19.70
2020,09,29,18,35,19.70
2020,09,29,18,36,19.70
2020,09,29,18,37,19.70
2020,09,29,18,38,19.60
2020,09,29,18,39,19.60
2020,09,29,18,40,19.60
2020,09,29,18,41,19.50
2020,09,29,18,42,19.50
2020,09,29,18,43,19.40
2020,09,29,18,44,19.30
2020,09,29,18,45,19.30
2020,09,29,18,46,19.30
2020,09,29,18,47,19.30
2020,09,29,18,48,19.30
2020,09,29,18,49,19.30
2020,09,29,18,50,19.30
2020,09,29,18,51,19.30
2020,09,29,18,52,19.30
2020,09,29,18,53,19.30
2020,09,29,18,54,19.30
